Regional Weather Roundup
Issued by NWS

Home | Current Version | Previous Version | Text Only | Print | Product List | Glossary On
Versions: 1 2 3 4 5 6 7 8 9 10 11 12 13 14 15 16 17 18 19 20 21 22 23 24 25 26 27 28 29 30 31 32 33 34 35 36 37 38 39 40 41 42 43 44 45 46 47 48 49 50
000
ASUS42 KFFC 251110
RWRGA
WEATHER ROUNDUP FOR GEORGIA
NATIONAL WEATHER SERVICE PEACHTREE CITY GA
700 AM EDT THU MAY 25 2017

NOTE: "FAIR" INDICATES FEW OR NO CLOUDS BELOW 12,000 FEET WITH NO
SIGNIFICANT WEATHER AND/OR OBSTRUCTIONS TO VISIBILITY.

* = USE WITH CAUTION. THE STATIONS MARKED WITH AN ASTERISK MAY NOT
REPORT WEATHER SUCH AS PRECIPITATION, FOG, OR THUNDER AND ARE NOT
QUALITY CONTROLLED BY NWS.

THE REMARK "TC" DENOTES TEMPERATURE READING IN DEGREES CELSIUS.

GAZ001>058-251200-
NORTH GEORGIA

CITY           SKY/WX    TMP DP  RH WIND       PRES   REMARKS
ATLANTA        MOCLDY    56  53  90 W12       29.68R
ATHENS         MOCLDY    57  56  96 W5        29.64R
CHAMBLEE       CLOUDY    57  52  83 W7        29.68R
PEACHTREE CITY CLOUDY    55  54  96 W3        29.71R
ROME           CLOUDY    57  56  96 SW5       29.69R
WEST ATLANTA   LGT RAIN  57  55  93 W7        29.69R
GAINESVILLE    MOCLDY    55  53  93 W13       29.66R
CARTERSVILLE   CLOUDY    56  55  97 VRB3      29.69R


CITY           SKY/WX    TMP DP  RH WIND       PRES   REMARKS
DALTON*        CLOUDY    54  54 100 CALM      29.67R
LAWRENCEVILLE* MOCLDY    57  54  88 W9G18     29.65
MARIETTA       CLOUDY    56  53  87 W14G21    29.67R
KENNESAW*      MOCLDY    55  55 100 W12       29.67
CANTON*        CLOUDY    54  52  94 W8        29.69R
$$

GAZ059>098-102>109-251200-
CENTRAL GEORGIA

CITY           SKY/WX    TMP DP  RH WIND       PRES   REMARKS
AUGUSTA-BUSH   PTCLDY    61  57  87 SW9       29.65R
AUGUSTA-DANIEL CLEAR     59  55  87 SW5       29.66R
COLUMBUS       MOCLDY    58  54  86 W12       29.73R
MACON          PTCLDY    58  53  84 W10       29.71R
ROBINS AFB     MOCLDY    59  54  83 W10       29.70R


CITY           SKY/WX    TMP DP  RH WIND       PRES   REMARKS
LAGRANGE*      CLOUDY    58  58 100 W10       29.74R
SYLVANIA*      CLEAR     60  60  99 SW3       29.68R
MILLEDGEVILLE* CLOUDY    59  57  94 CALM      29.69R
$$

GAZ099>101-110>166-251200-
SOUTH GEORGIA

CITY           SKY/WX    TMP DP  RH WIND       PRES   REMARKS
SAVANNAH       MOCLDY    64  59  83 SW13      29.71R
VALDOSTA       CLOUDY    60  58  92 CALM      29.77R
ALMA           CLOUDY    62  59  90 SW5       29.74R
ST SIMONS      MOCLDY    67  61  81 W10       29.73R
FT STEWART     CLOUDY    63  59  86 SW6       29.70R
ALBANY         CLEAR     59  56  89 W6        29.77R
HUNTER AFB     PTCLDY    64  64 100 SW9       29.69R
MOODY AFB      MOCLDY    63  55  77 SW6       29.75R
BRUNSWICK      CLOUDY    64  63  94 SW8       29.74R


CITY           SKY/WX    TMP DP  RH WIND       PRES   REMARKS
BAINBRIDGE*    PTCLDY    59  54  82 W5        29.77R
MOULTRIE*      CLEAR     61  55  82 SW3       29.77R
VIDALIA*       MOCLDY    61  59  94 SW3       29.71
WAYCROSS*      MOCLDY    65  65 100 W5        29.74R
DOUGLAS*       CLOUDY    61  55  82 SW5       29.77R
$$




USA.gov is the U.S. government's official web portal to all federal, state and local government web resources and services.